Terug naar catalogus

SL-18 DEB

ActiefLEO
NORAD 22567·DEBRIS·🇷🇺 Russia

Gelanceerd Mar 25, 1993 vanaf Plesetsk Cosmodrome

Loading…

Volgende Passages (komende 24 uur)

TLE

VersSource: Space-Track

Epoch: Sep 14, 2026, 02:33 UTC

1 22567U 93014C   26257.10679234  .00000884  00000-0  22703-3 0  9990
2 22567  75.7493 308.7425 0146214 302.8381  76.5351 14.44926342746835

Volg SL-18 DEB in realtime met AllMySat

Download on the App Store